^^
Your Local Weather - Clay, NY Station Historical Data
Daily Summary for March 9, 2018 Units:  Metric    English   Both
« Previous Day
Next Day »
Daily Weekly Monthly Yearly Custom
  High: Low: Average:
Temperature: 2.2 °C -2.9 °C -0.8 °C
Dew Point: -1 °C -5.9 °C -3.3 °C
Humidity: 92% 64% 84%
Wind Speed: 11.3km/h 1.6km/h 5.8km/h
Wind Gust: 25.7km/h - -
Wind- - West
Pressure: 1008.7 hPa 1001.9 hPa -
Precipitation: 4.06 mm    
Historical Graphs
 
 
Tabular Data for March 9, 2018
Time Temperature Dew Point Pressure Wind Wind Speed Wind Gust Humidity Rainfall Rate (Hourly) solar
00:04 -2.9 °C -5.9 °C 1002.9 hPa West 1.6 km/h 4.8 km/h 80% 0 mm 0 W/m2
00:10 -2.9 °C -5.7 °C 1002.9 hPa WSW 3.2 km/h 3.2 km/h 81% 0 mm 0 W/m2
00:16 -2.9 °C -5.7 °C 1002.9 hPa WSW 1.6 km/h 3.2 km/h 81% 0 mm 0 W/m2
00:22 -2.9 °C -5.7 °C 1002.9 hPa West 3.2 km/h 6.4 km/h 81% 0 mm 0 W/m2
00:28 -2.8 °C -5.7 °C 1002.9 hPa WSW 3.2 km/h 6.4 km/h 81% 0 mm 0 W/m2
00:34 -2.8 °C -5.6 °C 1002.9 hPa WSW 3.2 km/h 6.4 km/h 81% 0 mm 0 W/m2
00:40 -2.7 °C -5.4 °C 1002.9 hPa WSW 3.2 km/h 3.2 km/h 82% 0 mm 0 W/m2
00:46 -2.7 °C -5.4 °C 1002.9 hPa WSW 4.8 km/h 6.4 km/h 82% 0 mm 0 W/m2
00:52 -2.7 °C -5.3 °C 1002.9 hPa WSW 3.2 km/h 4.8 km/h 82% 0 mm 0 W/m2
00:58 -2.7 °C -5.3 °C 1002.9 hPa West 3.2 km/h 6.4 km/h 82% 0 mm 0 W/m2
01:04 -2.7 °C -5.3 °C 1002.6 hPa SW 3.2 km/h 12.9 km/h 82% 0 mm 0 W/m2
01:10 -2.7 °C -5.3 °C 1002.6 hPa West 4.8 km/h 4.8 km/h 82% 0 mm 0 W/m2
01:16 -2.6 °C -5.3 °C 1002.9 hPa WSW 4.8 km/h 4.8 km/h 82% 0 mm 0 W/m2
01:22 -2.6 °C -5.3 °C 1002.9 hPa WSW 1.6 km/h 3.2 km/h 82% 0 mm 0 W/m2
01:28 -2.6 °C -5.1 °C 1002.6 hPa West 1.6 km/h 4.8 km/h 83% 0 mm 0 W/m2
01:34 -2.6 °C -5.1 °C 1002.6 hPa West 3.2 km/h 4.8 km/h 83% 0 mm 0 W/m2
01:40 -2.6 °C -5.1 °C 1002.6 hPa West 3.2 km/h 3.2 km/h 83% 0 mm 0 W/m2
01:46 -2.6 °C -5.1 °C 1002.6 hPa WSW 3.2 km/h 6.4 km/h 83% 0 mm 0 W/m2
01:52 -2.6 °C -5.1 °C 1002.6 hPa SW 3.2 km/h 3.2 km/h 83% 0 mm 0 W/m2
01:58 -2.6 °C -4.9 °C 1002.3 hPa WSW 3.2 km/h 3.2 km/h 84% 0 mm 0 W/m2
02:04 -2.7 °C -5 °C 1002.3 hPa WSW 3.2 km/h 4.8 km/h 84% 0 mm 0 W/m2
02:10 -2.7 °C -5 °C 1002.3 hPa SW 3.2 km/h 3.2 km/h 84% 0 mm 0 W/m2
02:16 -2.7 °C -4.8 °C 1002.3 hPa WSW 3.2 km/h 6.4 km/h 85% 0 mm 0 W/m2
02:22 -2.7 °C -4.9 °C 1002.3 hPa West 3.2 km/h 3.2 km/h 85% 0 mm 0 W/m2
02:28 -2.8 °C -4.8 °C 1002.3 hPa WSW 3.2 km/h 6.4 km/h 86% 0 mm 0 W/m2
02:34 -2.8 °C -4.8 °C 1002.3 hPa West 3.2 km/h 8 km/h 86% 0 mm 0 W/m2
02:40 -2.7 °C -4.7 °C 1002.3 hPa West 3.2 km/h 3.2 km/h 86% 0 mm 0 W/m2
02:46 -2.7 °C -4.7 °C 1002.3 hPa West 1.6 km/h 3.2 km/h 86% 0 mm 0 W/m2
02:52 -2.7 °C -4.7 °C 1002.3 hPa West 1.6 km/h 1.6 km/h 86% 0 mm 0 W/m2
02:58 -2.7 °C -4.7 °C 1001.9 hPa SW 1.6 km/h 3.2 km/h 86% 0 mm 0 W/m2
03:04 -2.7 °C -4.7 °C 1001.9 hPa WSW 3.2 km/h 3.2 km/h 86% 0 mm 0 W/m2
03:10 -2.6 °C -4.6 °C 1001.9 hPa WSW 4.8 km/h 4.8 km/h 86% 0 mm 0 W/m2
03:16 -2.6 °C -4.6 °C 1001.9 hPa West 4.8 km/h 4.8 km/h 86% 0 mm 0 W/m2
03:22 -2.6 °C -4.6 °C 1002.3 hPa West 3.2 km/h 3.2 km/h 86% 0 mm 0 W/m2
03:28 -2.6 °C -4.6 °C 1002.3 hPa WSW 3.2 km/h 8 km/h 86% 0 mm 0 W/m2
03:34 -2.6 °C -4.6 °C 1002.3 hPa WSW 4.8 km/h 4.8 km/h 86% 0 mm 0 W/m2
03:40 -2.6 °C -4.6 °C 1002.3 hPa West 3.2 km/h 6.4 km/h 86% 0 mm 0 W/m2
03:46 -2.7 °C -4.7 °C 1001.9 hPa WSW 3.2 km/h 6.4 km/h 86% 0 mm 0 W/m2
03:52 -2.7 °C -4.6 °C 1001.9 hPa WSW 4.8 km/h 8 km/h 87% 0 mm 0 W/m2
03:58 -2.7 °C -4.6 °C 1001.9 hPa WSW 4.8 km/h 9.7 km/h 87% 0 mm 0 W/m2
04:04 -2.7 °C -4.6 °C 1002.3 hPa WSW 4.8 km/h 8 km/h 87% 0 mm 0 W/m2
04:10 -2.8 °C -4.5 °C 1002.3 hPa WSW 4.8 km/h 8 km/h 88% 0 mm 0 W/m2
04:16 -2.8 °C -4.5 °C 1002.3 hPa West 4.8 km/h 8 km/h 88% 0 mm 0 W/m2
04:22 -2.8 °C -4.5 °C 1002.3 hPa WSW 4.8 km/h 4.8 km/h 88% 0 mm 0 W/m2
04:28 -2.8 °C -4.6 °C 1002.3 hPa WSW 4.8 km/h 4.8 km/h 88% 0 mm 0 W/m2
04:34 -2.8 °C -4.5 °C 1002.3 hPa SW 4.8 km/h 9.7 km/h 88% 0 mm 0 W/m2
04:40 -2.8 °C -4.5 °C 1002.3 hPa West 4.8 km/h 4.8 km/h 88% 0 mm 0 W/m2
04:46 -2.7 °C -4.4 °C 1001.9 hPa SSW 4.8 km/h 6.4 km/h 88% 0 mm 0 W/m2
04:52 -2.7 °C -4.4 °C 1001.9 hPa SW 6.4 km/h 11.3 km/h 88% 0 mm 0 W/m2
04:58 -2.7 °C -4.4 °C 1001.9 hPa WSW 6.4 km/h 11.3 km/h 88% 0 mm 0 W/m2
05:04 -2.7 °C -4.4 °C 1001.9 hPa West 4.8 km/h 6.4 km/h 88% 0 mm 0 W/m2
05:10 -2.7 °C -4.4 °C 1001.9 hPa West 6.4 km/h 9.7 km/h 88% 0 mm 0 W/m2
05:16 -2.6 °C -4.3 °C 1001.9 hPa SW 4.8 km/h 9.7 km/h 88% 0 mm 0 W/m2
05:22 -2.7 °C -4.4 °C 1002.3 hPa West 4.8 km/h 12.9 km/h 88% 0 mm 0 W/m2
05:28 -2.7 °C -4.4 °C 1002.3 hPa West 4.8 km/h 12.9 km/h 88% 0 mm 0 W/m2
05:34 -2.7 °C -4.4 °C 1001.9 hPa SW 4.8 km/h 4.8 km/h 88% 0 mm 0 W/m2
05:40 -2.7 °C -4.4 °C 1002.3 hPa WSW 6.4 km/h 6.4 km/h 88% 0 mm 0 W/m2
05:46 -2.7 °C -4.4 °C 1001.9 hPa West 4.8 km/h 8 km/h 88% 0 mm 0 W/m2
05:52 -2.7 °C -4.4 °C 1002.3 hPa West 4.8 km/h 4.8 km/h 88% 0 mm 0 W/m2
05:58 -2.7 °C -4.4 °C 1002.3 hPa WSW 6.4 km/h 14.5 km/h 88% 0 mm 0 W/m2
06:04 -2.7 °C -4.4 °C 1002.3 hPa West 6.4 km/h 8 km/h 88% 0 mm 0 W/m2
06:10 -2.7 °C -4.4 °C 1002.3 hPa West 4.8 km/h 6.4 km/h 88% 0 mm 0 W/m2
06:16 -2.7 °C -4.4 °C 1002.3 hPa SW 4.8 km/h 8 km/h 88% 0 mm 0 W/m2
06:22 -2.7 °C -4.4 °C 1002.3 hPa WSW 4.8 km/h 4.8 km/h 88% 0 mm 0 W/m2
06:28 -2.7 °C -4.4 °C 1002.3 hPa SW 4.8 km/h 8 km/h 88% 0 mm 0 W/m2
06:34 -2.7 °C -4.4 °C 1002.3 hPa West 4.8 km/h 6.4 km/h 88% 0 mm 5 W/m2
06:40 -2.7 °C -4.4 °C 1002.3 hPa West 4.8 km/h 6.4 km/h 88% 0 mm 11 W/m2
06:46 -2.7 °C -4.4 °C 1002.3 hPa West 4.8 km/h 6.4 km/h 88% 0 mm 18 W/m2
06:52 -2.7 °C -4.2 °C 1002.3 hPa SW 3.2 km/h 4.8 km/h 89% 0 mm 19 W/m2
06:58 -2.6 °C -4.2 °C 1002.3 hPa West 3.2 km/h 6.4 km/h 89% 0 mm 25 W/m2
07:04 -2.6 °C -4.2 °C 1002.3 hPa WSW 4.8 km/h 12.9 km/h 89% 0 mm 37 W/m2
07:10 -2.6 °C -4.1 °C 1002.3 hPa WSW 3.2 km/h 4.8 km/h 89% 0 mm 47 W/m2
07:16 -2.4 °C -4 °C 1002.3 hPa WSW 4.8 km/h 6.4 km/h 89% 0 mm 60 W/m2
07:22 -2.4 °C -3.9 °C 1002.6 hPa SW 6.4 km/h 9.7 km/h 89% 0 mm 65 W/m2
07:28 -2.3 °C -3.9 °C 1002.3 hPa WSW 6.4 km/h 11.3 km/h 89% 0 mm 74 W/m2
07:34 -2.2 °C -3.8 °C 1002.3 hPa West 4.8 km/h 9.7 km/h 89% 0 mm 79 W/m2
07:40 -2.2 °C -3.7 °C 1002.3 hPa SW 6.4 km/h 6.4 km/h 89% 0 mm 76 W/m2
07:46 -2.1 °C -3.7 °C 1002.3 hPa West 4.8 km/h 8 km/h 89% 0 mm 63 W/m2
07:52 -2.1 °C -3.6 °C 1002.3 hPa WSW 4.8 km/h 6.4 km/h 90% 0 mm 76 W/m2
07:58 -2.1 °C -3.6 °C 1002.6 hPa WSW 6.4 km/h 8 km/h 90% 0 mm 86 W/m2
08:04 -2.1 °C -3.6 °C 1002.6 hPa WSW 6.4 km/h 8 km/h 90% 0 mm 113 W/m2
08:10 -2 °C -3.4 °C 1002.3 hPa West 6.4 km/h 6.4 km/h 90% 0 mm 116 W/m2
08:16 -2 °C -3.4 °C 1002.3 hPa WSW 6.4 km/h 8 km/h 90% 0 mm 84 W/m2
08:22 -2 °C -3.4 °C 1002.3 hPa SW 6.4 km/h 6.4 km/h 90% 0 mm 77 W/m2
08:28 -1.9 °C -3.4 °C 1002.6 hPa SW 4.8 km/h 8 km/h 90% 0 mm 97 W/m2
08:34 -1.9 °C -3.3 °C 1002.6 hPa West 4.8 km/h 4.8 km/h 90% 0 mm 53 W/m2
08:40 -1.9 °C -3.2 °C 1002.6 hPa West 6.4 km/h 6.4 km/h 91% 0 mm 70 W/m2
08:46 -1.8 °C -3.1 °C 1002.6 hPa WNW 4.8 km/h 6.4 km/h 91% 0 mm 72 W/m2
08:52 -1.7 °C -3 °C 1002.6 hPa West 4.8 km/h 11.3 km/h 91% 0 mm 95 W/m2
08:58 -1.7 °C -2.9 °C 1002.6 hPa WSW 4.8 km/h 11.3 km/h 91% 0 mm 74 W/m2
09:04 -1.6 °C -2.9 °C 1002.6 hPa WSW 4.8 km/h 4.8 km/h 91% 0 mm 76 W/m2
09:10 -1.6 °C -2.8 °C 1002.6 hPa WSW 3.2 km/h 8 km/h 91% 0 mm 100 W/m2
09:16 -1.4 °C -2.7 °C 1002.9 hPa WSW 4.8 km/h 8 km/h 91% 0 mm 104 W/m2
09:22 -1.4 °C -2.7 °C 1002.9 hPa WSW 6.4 km/h 6.4 km/h 91% 0 mm 83 W/m2
09:28 -1.3 °C -2.6 °C 1002.9 hPa WSW 4.8 km/h 6.4 km/h 91% 0 mm 74 W/m2
09:34 -1.2 °C -2.5 °C 1002.9 hPa WSW 3.2 km/h 4.8 km/h 91% 0 mm 47 W/m2
09:40 -1.2 °C -2.4 °C 1002.9 hPa SW 3.2 km/h 3.2 km/h 91% 0 mm 56 W/m2
09:46 -1.1 °C -2.2 °C 1002.9 hPa WSW 3.2 km/h 3.2 km/h 92% 0 mm 63 W/m2
09:52 -0.9 °C -2.1 °C 1002.9 hPa WNW 3.2 km/h 8 km/h 92% 0 mm 46 W/m2
09:58 -0.8 °C -1.9 °C 1002.9 hPa NW 4.8 km/h 8 km/h 92% 0 mm 33 W/m2
10:04 -0.8 °C -1.9 °C 1002.9 hPa WNW 3.2 km/h 4.8 km/h 92% 0 mm 32 W/m2
10:10 -0.7 °C -1.8 °C 1002.9 hPa WNW 3.2 km/h 9.7 km/h 92% 0 mm 35 W/m2
10:16 -0.7 °C -1.8 °C 1002.9 hPa West 6.4 km/h 9.7 km/h 92% 0 mm 105 W/m2
10:22 -0.1 °C -1.2 °C 1002.9 hPa WNW 6.4 km/h 8 km/h 92% 0 mm 336 W/m2
10:28 0.2 °C -1 °C 1002.9 hPa WNW 6.4 km/h 8 km/h 92% 0 mm 213 W/m2
10:34 0.2 °C -1.1 °C 1002.9 hPa WNW 6.4 km/h 12.9 km/h 91% 0 mm 531 W/m2
10:40 0.2 °C -1.4 °C 1002.9 hPa WNW 8 km/h 8 km/h 89% 0 mm 223 W/m2
10:46 0.6 °C -1.2 °C 1002.9 hPa West 6.4 km/h 8 km/h 88% 0 mm 306 W/m2
10:52 0.9 °C -1.1 °C 1002.9 hPa West 6.4 km/h 8 km/h 86% 7.11 mm 388 W/m2
10:58 1.1 °C -1.3 °C 1002.9 hPa WSW 8 km/h 11.3 km/h 84% 4.32 mm 786 W/m2
11:04 0.8 °C -2.1 °C 1002.9 hPa WNW 9.7 km/h 14.5 km/h 81% 3.56 mm 299 W/m2
11:10 1 °C -1.9 °C 1002.9 hPa WNW 8 km/h 8 km/h 81% 3.3 mm 281 W/m2
11:16 0.9 °C -2.1 °C 1002.9 hPa WSW 8 km/h 12.9 km/h 80% 2.54 mm 461 W/m2
11:22 1.2 °C -2.4 °C 1002.9 hPa WNW 9.7 km/h 9.7 km/h 77% 2.29 mm 642 W/m2
11:28 1.1 °C -2.7 °C 1002.9 hPa West 9.7 km/h 11.3 km/h 76% 1.78 mm 200 W/m2
11:34 0.8 °C -2.8 °C 1003.3 hPa WNW 9.7 km/h 12.9 km/h 77% 1.78 mm 272 W/m2
11:40 0.7 °C -2.7 °C 1003.3 hPa WNW 8 km/h 8 km/h 78% 1.27 mm 193 W/m2
11:46 0.9 °C -2.6 °C 1003.3 hPa NW 8 km/h 9.7 km/h 77% 0 mm 388 W/m2
11:52 1 °C -2.8 °C 1003.3 hPa NW 8 km/h 11.3 km/h 76% 0 mm 239 W/m2
11:58 0.8 °C -2.8 °C 1003.6 hPa WNW 9.7 km/h 11.3 km/h 77% 0 mm 188 W/m2
12:04 0.6 °C -2.5 °C 1003.6 hPa NW 9.7 km/h 11.3 km/h 80% 0 mm 346 W/m2
12:10 1.3 °C -2.1 °C 1003.3 hPa West 8 km/h 16.1 km/h 78% 0 mm 789 W/m2
12:16 2 °C -2.3 °C 1003.3 hPa NW 6.4 km/h 16.1 km/h 73% 1.78 mm 898 W/m2
12:22 1.8 °C -2.5 °C 1003.3 hPa NW 6.4 km/h 8 km/h 73% 1.78 mm 237 W/m2
12:28 1 °C -2.8 °C 1003.3 hPa West 8 km/h 9.7 km/h 76% 1.27 mm 232 W/m2
12:34 0.8 °C -2.8 °C 1003.3 hPa West 8 km/h 12.9 km/h 77% 0 mm 200 W/m2
12:40 0.9 °C -3.1 °C 1003.3 hPa WNW 8 km/h 8 km/h 75% 0 mm 253 W/m2
12:46 1.4 °C -2.9 °C 1003.3 hPa WNW 9.7 km/h 12.9 km/h 73% 0 mm 367 W/m2
12:52 1.1 °C -3.1 °C 1003.6 hPa WNW 9.7 km/h 24.1 km/h 74% 0 mm 214 W/m2
12:58 1.1 °C -3.1 °C 1003.6 hPa West 11.3 km/h 24.1 km/h 74% 0 mm 390 W/m2
13:04 1 °C -3.1 °C 1003.6 hPa WNW 11.3 km/h 16.1 km/h 74% 0 mm 276 W/m2
13:10 1 °C -2.8 °C 1003.6 hPa WNW 9.7 km/h 14.5 km/h 76% 0 mm 146 W/m2
13:16 0.9 °C -2.6 °C 1003.6 hPa WNW 8 km/h 14.5 km/h 77% 0 mm 380 W/m2
13:22 1.3 °C -2.8 °C 1003.6 hPa WNW 8 km/h 9.7 km/h 74% 0 mm 243 W/m2
13:28 1.2 °C -2.8 °C 1003.9 hPa WNW 8 km/h 14.5 km/h 75% 0 mm 114 W/m2
13:34 0.6 °C -2.7 °C 1003.9 hPa WNW 8 km/h 9.7 km/h 79% 0 mm 301 W/m2
13:40 0.8 °C -2.4 °C 1003.9 hPa WNW 8 km/h 8 km/h 79% 0 mm 469 W/m2
13:46 1.3 °C -2.8 °C 1003.6 hPa WNW 8 km/h 14.5 km/h 74% 0 mm 420 W/m2
13:52 1.6 °C -3.1 °C 1003.9 hPa NW 9.7 km/h 12.9 km/h 71% 0 mm 696 W/m2
13:58 1.9 °C -3.2 °C 1003.9 hPa NNW 9.7 km/h 17.7 km/h 69% 0 mm 733 W/m2
14:06 1.7 °C -3.2 °C 1003.9 hPa NW 11.3 km/h 11.3 km/h 70% 0 mm 334 W/m2
14:12 2.2 °C -2.9 °C 1003.9 hPa West 9.7 km/h 9.7 km/h 69% 0 mm 773 W/m2
14:18 2.2 °C -2.9 °C 1003.9 hPa North 9.7 km/h 9.7 km/h 69% 0 mm 304 W/m2
14:26 1.9 °C -3.6 °C 1003.9 hPa West 11.3 km/h 17.7 km/h 67% 0 mm 476 W/m2
14:32 1.9 °C -3.4 °C 1003.9 hPa West 11.3 km/h 11.3 km/h 68% 0 mm 209 W/m2
14:38 1.6 °C -3.3 °C 1003.9 hPa West 8 km/h 11.3 km/h 70% 0 mm 190 W/m2
14:44 1.6 °C -3.3 °C 1003.9 hPa WNW 8 km/h 9.7 km/h 70% 0 mm 192 W/m2
14:50 1.6 °C -3.4 °C 1003.9 hPa NW 8 km/h 9.7 km/h 69% 0 mm 128 W/m2
14:56 1.6 °C -3.7 °C 1004.3 hPa WNW 9.7 km/h 16.1 km/h 68% 0 mm 301 W/m2
15:02 1.7 °C -3.6 °C 1004.3 hPa West 9.7 km/h 12.9 km/h 68% 0 mm 185 W/m2
15:08 1.7 °C -3.6 °C 1003.9 hPa West 8 km/h 12.9 km/h 68% 0 mm 179 W/m2
15:16 1.9 °C -3.6 °C 1004.3 hPa West 8 km/h 16.1 km/h 67% 0 mm 452 W/m2
15:24 2.1 °C -3.6 °C 1004.6 hPa West 11.3 km/h 11.3 km/h 66% 0 mm 220 W/m2
15:30 2.1 °C -4.1 °C 1004.6 hPa WSW 9.7 km/h 16.1 km/h 64% 0 mm 216 W/m2
15:36 1.9 °C -4.2 °C 1004.6 hPa NW 11.3 km/h 16.1 km/h 64% 0 mm 255 W/m2
15:42 1.9 °C -4.2 °C 1004.6 hPa West 9.7 km/h 11.3 km/h 64% 0 mm 181 W/m2
15:48 1.9 °C -4.2 °C 1004.6 hPa West 9.7 km/h 12.9 km/h 64% 0 mm 181 W/m2
15:54 1.9 °C -4 °C 1004.6 hPa WSW 9.7 km/h 11.3 km/h 65% 0 mm 176 W/m2
16:00 1.9 °C -3.8 °C 1004.6 hPa West 9.7 km/h 9.7 km/h 66% 0 mm 163 W/m2
16:06 1.9 °C -3.8 °C 1005 hPa WNW 11.3 km/h 25.7 km/h 66% 0 mm 155 W/m2
16:12 1.8 °C -3.9 °C 1005 hPa WNW 11.3 km/h 11.3 km/h 66% 0 mm 118 W/m2
16:18 1.7 °C -3.6 °C 1005 hPa WNW 8 km/h 11.3 km/h 68% 0 mm 69 W/m2
16:24 1.6 °C -3.3 °C 1005 hPa West 8 km/h 11.3 km/h 70% 0 mm 81 W/m2
16:30 1.2 °C -3.2 °C 1005.3 hPa WNW 11.3 km/h 11.3 km/h 73% 0 mm 84 W/m2
16:36 0.9 °C -3 °C 1005.3 hPa WNW 9.7 km/h 11.3 km/h 75% 0 mm 88 W/m2
16:42 0.8 °C -2.7 °C 1005.6 hPa WNW 8 km/h 19.3 km/h 77% 0 mm 74 W/m2
16:48 0.8 °C -2.7 °C 1005.6 hPa NW 8 km/h 19.3 km/h 77% 0 mm 81 W/m2
16:54 0.9 °C -2.7 °C 1005.6 hPa West 8 km/h 8 km/h 77% 0 mm 74 W/m2
17:00 0.9 °C -2.6 °C 1005.6 hPa West 4.8 km/h 9.7 km/h 77% 0 mm 62 W/m2
17:06 1.1 °C -2.7 °C 1005.6 hPa WNW 4.8 km/h 9.7 km/h 76% 0 mm 56 W/m2
17:12 1.1 °C -3 °C 1005.6 hPa West 8 km/h 12.9 km/h 74% 0 mm 44 W/m2
17:18 1.1 °C -3.2 °C 1006 hPa WNW 9.7 km/h 14.5 km/h 73% 0 mm 37 W/m2
17:24 1.1 °C -3.2 °C 1006 hPa WNW 8 km/h 11.3 km/h 73% 0 mm 23 W/m2
17:30 1.1 °C -3.2 °C 1006 hPa WNW 6.4 km/h 6.4 km/h 73% 0 mm 19 W/m2
17:36 1 °C -3.1 °C 1006 hPa WNW 4.8 km/h 6.4 km/h 74% 0 mm 23 W/m2
17:42 0.8 °C -3.1 °C 1006 hPa West 6.4 km/h 9.7 km/h 75% 0 mm 19 W/m2
17:48 0.7 °C -3.1 °C 1006 hPa West 8 km/h 11.3 km/h 76% 0 mm 16 W/m2
17:54 0.7 °C -3.1 °C 1006.3 hPa SW 8 km/h 8 km/h 76% 0 mm 7 W/m2
18:00 0.7 °C -2.9 °C 1006.3 hPa West 6.4 km/h 9.7 km/h 77% 0 mm 0 W/m2
18:06 0.5 °C -2.6 °C 1006.3 hPa WSW 6.4 km/h 9.7 km/h 80% 0 mm 0 W/m2
18:12 0.3 °C -2.4 °C 1006.7 hPa WSW 4.8 km/h 6.4 km/h 82% 0 mm 0 W/m2
18:18 0.2 °C -2.3 °C 1006.7 hPa WSW 3.2 km/h 6.4 km/h 83% 0 mm 0 W/m2
18:24 0.2 °C -2.2 °C 1006.7 hPa WSW 3.2 km/h 4.8 km/h 84% 0 mm 0 W/m2
18:30 0.1 °C -2.1 °C 1006.7 hPa West 3.2 km/h 6.4 km/h 85% 0 mm 0 W/m2
18:36 0.1 °C -2 °C 1006.7 hPa WSW 4.8 km/h 8 km/h 86% 0 mm 0 W/m2
18:42 0.1 °C -2 °C 1006.7 hPa WNW 4.8 km/h 8 km/h 86% 0 mm 0 W/m2
18:48 -0.1 °C -2 °C 1007 hPa NW 4.8 km/h 8 km/h 87% 0 mm 0 W/m2
18:54 -0.4 °C -2.3 °C 1007 hPa WNW 6.4 km/h 6.4 km/h 87% 0 mm 0 W/m2
19:00 -0.6 °C -2.3 °C 1007.3 hPa NW 4.8 km/h 4.8 km/h 88% 0 mm 0 W/m2
19:06 -0.7 °C -2.4 °C 1007.3 hPa West 6.4 km/h 11.3 km/h 88% 0 mm 0 W/m2
19:12 -0.8 °C -2.4 °C 1007.3 hPa NNW 8 km/h 9.7 km/h 89% 0 mm 0 W/m2
19:18 -0.9 °C -2.5 °C 1007.3 hPa West 8 km/h 11.3 km/h 89% 0 mm 0 W/m2
19:24 -1.1 °C -2.5 °C 1007.3 hPa WNW 6.4 km/h 9.7 km/h 90% 0 mm 0 W/m2
19:30 -1.2 °C -2.6 °C 1007.3 hPa WNW 6.4 km/h 6.4 km/h 90% 0 mm 0 W/m2
19:36 -1.2 °C -2.6 °C 1007.3 hPa WNW 4.8 km/h 6.4 km/h 90% 0 mm 0 W/m2
19:42 -1.1 °C -2.5 °C 1007.3 hPa West 4.8 km/h 4.8 km/h 90% 0 mm 0 W/m2
19:48 -0.9 °C -2.4 °C 1007.3 hPa WSW 4.8 km/h 4.8 km/h 90% 0 mm 0 W/m2
19:54 -0.9 °C -2.3 °C 1007.3 hPa WSW 3.2 km/h 4.8 km/h 90% 0 mm 0 W/m2
20:00 -0.8 °C -2.3 °C 1007.7 hPa WSW 3.2 km/h 4.8 km/h 90% 0 mm 0 W/m2
20:06 -0.8 °C -2.1 °C 1007.7 hPa WSW 3.2 km/h 4.8 km/h 91% 0 mm 0 W/m2
20:12 -0.7 °C -2 °C 1007.7 hPa WSW 3.2 km/h 3.2 km/h 91% 0 mm 0 W/m2
20:18 -0.7 °C -2 °C 1007.7 hPa West 3.2 km/h 3.2 km/h 91% 0 mm 0 W/m2
20:24 -0.7 °C -2 °C 1007.7 hPa WNW 4.8 km/h 4.8 km/h 91% 0 mm 0 W/m2
20:30 -0.7 °C -2 °C 1007.7 hPa WNW 4.8 km/h 4.8 km/h 91% 0 mm 0 W/m2
20:36 -0.7 °C -2 °C 1007.7 hPa WNW 3.2 km/h 4.8 km/h 91% 0 mm 0 W/m2
20:42 -0.8 °C -2.1 °C 1007.7 hPa WNW 4.8 km/h 4.8 km/h 91% 0 mm 0 W/m2
20:48 -0.8 °C -2.1 °C 1007.7 hPa WNW 4.8 km/h 6.4 km/h 91% 0 mm 0 W/m2
20:54 -0.8 °C -2.1 °C 1007.7 hPa NW 4.8 km/h 4.8 km/h 91% 0 mm 0 W/m2
21:00 -0.9 °C -2.2 °C 1007.7 hPa West 4.8 km/h 6.4 km/h 91% 0 mm 0 W/m2
21:06 -0.9 °C -2.2 °C 1007.7 hPa West 4.8 km/h 6.4 km/h 91% 0 mm 0 W/m2
21:12 -0.9 °C -2.2 °C 1007.7 hPa WNW 6.4 km/h 6.4 km/h 91% 0 mm 0 W/m2
21:18 -0.9 °C -2.2 °C 1007.7 hPa NW 4.8 km/h 8 km/h 91% 0 mm 0 W/m2
21:24 -0.9 °C -2.2 °C 1008 hPa WNW 4.8 km/h 8 km/h 91% 0 mm 0 W/m2
21:30 -1 °C -2.3 °C 1008 hPa West 4.8 km/h 4.8 km/h 91% 0 mm 0 W/m2
21:36 -1 °C -2.4 °C 1008 hPa NW 4.8 km/h 6.4 km/h 90% 0 mm 0 W/m2
21:42 -0.9 °C -2.4 °C 1008 hPa West 4.8 km/h 6.4 km/h 90% 0 mm 0 W/m2
21:48 -0.9 °C -2.4 °C 1008 hPa West 6.4 km/h 9.7 km/h 90% 0 mm 0 W/m2
21:54 -1 °C -2.4 °C 1008.4 hPa West 6.4 km/h 12.9 km/h 90% 0 mm 0 W/m2
22:00 -1.1 °C -2.5 °C 1008.4 hPa NW 4.8 km/h 8 km/h 90% 0 mm 0 W/m2
22:06 -1.1 °C -2.5 °C 1008.4 hPa NW 4.8 km/h 9.7 km/h 90% 0 mm 0 W/m2
22:12 -1.1 °C -2.6 °C 1008.4 hPa WNW 4.8 km/h 6.4 km/h 90% 0 mm 0 W/m2
22:18 -1.1 °C -2.5 °C 1008.4 hPa West 4.8 km/h 6.4 km/h 90% 0 mm 0 W/m2
22:24 -1.1 °C -2.6 °C 1008.4 hPa West 4.8 km/h 6.4 km/h 89% 0 mm 0 W/m2
22:30 -1.1 °C -2.6 °C 1008.4 hPa West 4.8 km/h 4.8 km/h 89% 0 mm 0 W/m2
22:36 -1.1 °C -2.6 °C 1008.4 hPa West 4.8 km/h 8 km/h 89% 0 mm 0 W/m2
22:42 -1.1 °C -2.6 °C 1008.4 hPa WNW 4.8 km/h 4.8 km/h 89% 0 mm 0 W/m2
22:48 -1.1 °C -2.7 °C 1008.4 hPa WNW 4.8 km/h 6.4 km/h 89% 0 mm 0 W/m2
22:54 -1.1 °C -2.7 °C 1008.4 hPa WNW 6.4 km/h 9.7 km/h 89% 0 mm 0 W/m2
23:00 -1.1 °C -2.8 °C 1008.4 hPa North 4.8 km/h 9.7 km/h 88% 0 mm 0 W/m2
23:06 -1.1 °C -2.8 °C 1008.4 hPa WNW 4.8 km/h 9.7 km/h 88% 0 mm 0 W/m2
23:12 -1.2 °C -2.9 °C 1008.4 hPa NW 4.8 km/h 8 km/h 88% 0 mm 0 W/m2
23:18 -1.2 °C -2.9 °C 1008.7 hPa WNW 4.8 km/h 8 km/h 88% 0 mm 0 W/m2
23:24 -1.2 °C -2.9 °C 1008.4 hPa WNW 3.2 km/h 8 km/h 88% 0 mm 0 W/m2
23:30 -1.3 °C -3 °C 1008.4 hPa NW 4.8 km/h 8 km/h 88% 0 mm 0 W/m2
23:36 -1.3 °C -3 °C 1008.4 hPa WNW 3.2 km/h 8 km/h 88% 0 mm 0 W/m2
23:42 -1.3 °C -3.1 °C 1008.4 hPa WNW 4.8 km/h 6.4 km/h 88% 0 mm 0 W/m2
23:48 -1.4 °C -3.1 °C 1008.4 hPa NW 4.8 km/h 8 km/h 88% 0 mm 0 W/m2
23:54 -1.4 °C -3.2 °C 1008.7 hPa WNW 6.4 km/h 9.7 km/h 88% 0 mm 0 W/m2
Country Meadow, Clay, NY, USA
Compliments of Weather Underground - 2 mb